User: anonymous
Location: Vancouver
(49.2500°N, 123.1330°W)
Time: 10:12:50
(UTC-07:00)
Language:

JAS-1B - Orbit

View from above orbital plane
View from above orbital plane
View from above satellite
View from above satellite

Ground track
Ground track

The orbit data is extracted from the following two-line orbital elements,

1 20480U 90013C   14206.49023957 -.00000042  00000-0 -12405-4 0  7924
2 20480 099.0471 162.4277 0539396 267.0226 209.5026 12.83394632146045
Epoch (UTC): 25 July 2014 11:45:56
Eccentricity: 0.0539396
inclination: 99.0471°
perigee height: 912 km
apogee height: 1743 km
right ascension of ascending node: 162.4277°
argument of perigee: 267.0226°
revolutions per day: 12.83394632
mean anomaly at epoch: 209.5026°
orbit number at epoch: 14604

The dashed part of the orbit path shows where the satellite is in the earth's shadow,  

DLR